Regional Weather Roundup
Issued by NWS Columbia, SC

Home | Current Version | Previous Version | Text Only | Print | Product List | Glossary On
Versions: 1 2 3 4 5 6 7 8 9 10 11 12 13 14 15 16 17 18 19 20 21 22 23 24 25 26 27
000
ASUS42 KCAE 281510
RWRCAE
REGIONAL WEATHER ROUNDUP
NATIONAL WEATHER SERVICE COLUMBIA SC
1100 AM EDT WED SEP 28 2016

NOTE: "FAIR" INDICATES FEW OR NO CLOUDS BELOW 12,000 FEET WITH NO
SIGNIFICANT WEATHER AND/OR OBSTRUCTIONS TO VISIBILITY.

NOT ALL STATIONS ARE QUALITY CONTROLLED BY THE NATIONAL
WEATHER SERVICE. USE DATA WITH CAUTION...ESPECIALLY
DEWPOINT OBSERVATIONS.

SCZ001>056-GAZ040-063>065-077-281600-
...UPSTATE SOUTH CAROLINA...

CITY           SKY/WX    TMP DP  RH WIND       PRES   REMARKS
ANDERSON       CLOUDY    74  68  81 W7        29.96R
LIBERTY        CLOUDY    77  68  74 SW6       29.95S
SPARTANBURG    CLOUDY    72  66  83 SW3       29.95S
CLEMSON        CLOUDY    76  67  73 VRB3      29.97S
GREENVILLE     CLOUDY    74  67  78 VRB6      29.97R
GREENWOOD      SUNNY     78  68  71 SW5       29.97R
GREER          CLOUDY    77  68  73 SW7       29.95R
ROCK HILL      MOSUNNY   77  67  71 CALM      29.96S
CHESTER        SUNNY     77  64  65 SW3       29.96F
LAURENS        MOSUNNY   73  68  83 SW6       29.96S


...CENTRAL SOUTH CAROLINA...

CITY           SKY/WX    TMP DP  RH WIND       PRES   REMARKS
COLUMBIA APT   MOSUNNY   84  70  62 W7        29.94R
COLUMBIA OWENS SUNNY     82  70  66 VRB5      29.95S
MCENTIRE ANGB  MOSUNNY   83  71  68 S3        29.95R
ORANGEBURG     SUNNY     82  71  69 SW8       29.96R
SUMTER SHAW    MOSUNNY   83  71  66 SW8       29.93R
NEWBERRY       SUNNY     77  70  78 W3        29.98S
AIKEN          FAIR      81  68  65 SW6       29.98S
MANNING        FAIR      79  70  73 S5        29.96R
LANCASTER      SUNNY     77  68  73 SE6       29.96S
WINNSBORO      SUNNY     77  68  73 CALM      29.96S


...EASTERN AND COASTAL SOUTH CAROLINA...

CITY           SKY/WX    TMP DP  RH WIND       PRES   REMARKS
MYRTLE BEACH   MOSUNNY   84  66  54 S12       29.99S
N MYRTLE BCH   SUNNY     82  72  71 S10       29.98R
CONWAY         FAIR      81  72  74 S7        29.98S
MARION         FAIR      81  72  74 SW3       29.97S
HARTSVILLE     FAIR      79  70  73 SW6       29.96S
FLORENCE       SUNNY     82  71  69 S9        29.96R
DARLINGTON     SUNNY     81  72  74 SW7       29.96R
CHARLESTON APT PTSUNNY   85  71  63 SW8       29.97R
MOUNT PLEASANT FAIR      84  75  74 S8        29.97S
WALTERBORO     MOSUNNY   84  73  70 S9        29.98S
BEAUFORT       MOSUNNY   84  70  62 SW8       29.97S


...EASTERN GEORGIA...

CITY           SKY/WX    TMP DP  RH WIND       PRES   REMARKS
AUGUSTA BUSH F MOSUNNY   81  70  69 S5        29.94R
AUGUSTA DANIEL MOSUNNY   82  67  60 VRB3      29.96R
THOMSON        SUNNY     84  73  68 CALM      29.99S
WASHINGTON     FAIR      82  72  69 SW5       29.96R
CLAXTON        FAIR      84  73  68 S3        29.97S
STATESBORO     SUNNY     86  73  65 S9        29.97R
SAVANNAH       PTSUNNY   84  70  62 S7        29.97S


...SOUTHERN NORTH CAROLINA...

CITY           SKY/WX    TMP DP  RH WIND       PRES   REMARKS
CHARLOTTE      MOSUNNY   77  67  71 SW6       29.96S
MONROE         SUNNY     77  65  66 SW6       29.95S
WADESBORO      MOSUNNY   78  66  65 CALM      29.95F HAZE
RUTHERFORDTON  CLOUDY    66  66 100 CALM      29.97S FOG
ASHEVILLE      MOSUNNY   70  62  76 CALM      29.99F

$$




USA.gov is the U.S. government's official web portal to all federal, state and local government web resources and services.